www.pogodaiklimat.ru

Погода и климат >> Архив погоды >> Россия >> Свердловская область >> Ирбит


ПОГОДА в Ирбите

  • Прогноз погоды в Ирбите
  • Монитор погоды в Ирбите
  • Климат города

АРХИВ ПОГОДЫ в Ирбите

Время (UTC), дата Ветер
(напр.,м/с)
 
Видим.   Явления Облачность Т
(С)
Тd
(С)
f
(%)
Тe
(С)
Тes
(С)
Комфортность P
(гПа)
Po
(гПа)
Тmin
(С)
Tmax
(С)
R
(мм)
R24
(мм)
S
(см)
06 17.08 З 3 50 км 4/3 600 м
[Sc diur, vesp Ac trans Ci fib]
+19.3 +9.8 54 +20 +25 1024.9 1016.1
09 17.08 С 4 50 км 8/8 600 м
[Cu med, cong]
+19.6 +7.5 45 +20 +22 1024.5 1015.6
12 17.08 СЗ 2 50 км {ливн. осадки} 8/6 600 м
[Cb calv Ac trans Ci sp]
+20.1 +10.3 53 +22 +23 комфорт 1024.2 1015.4
15 17.08 С 1 50 км 6/3 600 м
[Cb calv Ac trans Ci fib]
+16.8 +10.1 65 +18 +18 1025.3 1016.5 +21.6 0.0
18 17.08 ЮЗ 1 50 км 3/3 600 м
[Sc]
+10.8 +9.2 90 +10 +10 1027.0 1017.9
21 17.08 ЮЗ 1 30 км местами туман поземный ясно +7.6 +6.8 95 +7 +7 1027.6 1018.4
00 18.08 ЮЗ 1 4000 м дымка 1/0
[Ci fib]
+6.4 +5.7 95 +5 +5 1028.3 1019.1
03 18.08 З 1 50 км 3/0
[Ci fib]
+9.8 +8.0 89 +9 +12 1029.1 1020.0 +5.8
06 18.08 СЗ 2 50 км 3/1 600 м
[Cu hum Ci fib]
+16.6 +8.1 57 +17 +25 1028.8 1019.9
09 18.08 СЗ 2 50 км 8/8 600 м
[Cu med, cong Ci fib]
+18.8 +4.8 40 +20 +22 1028.1 1019.2
12 18.08 З 2 50 км 6/6 600 м
[Cu hum]
+19.5 +4.3 37 +21 +22 комфорт 1026.7 1017.9
15 18.08 штиль 0 50 км 3/0
[Ci fib]
+17.1 +6.5 50 +17 +17 1026.0 1017.1 +19.7
18 18.08 ЮЗ 1 50 км 3/0
[Ac trans]
+8.9 +6.6 85 +8 +8 1026.3 1017.1
21 18.08 ЮЗ 1 40 км местами туман поземный 3/3 600 м
[Sc]
+7.2 +5.8 91 +6 +6 1025.6 1016.4
00 19.08 ЮЗ 2 50 км местами туман поземный 6/5 600 м
[Sc Ac trans Ci fib]
+9.1 +6.8 86 +7 +7 1024.8 1015.7
03 19.08 ЮЗ 2 50 км 5/0
[Ac trans Ci sp]
+12.0 +8.4 79 +11 +13 1024.7 1015.7 +6.9
06 19.08 З 2 50 км 9/0
[Ac trans Ci sp]
+19.5 +11.2 59 +21 +26 комфорт 1023.9 1015.1
09 19.08 З 2 50 км 8/5 1000 м
[Cu med, cong Ac trans Cs]
+22.9 +8.9 41 +24 +28 комфорт 1022.8 1014.1
12 19.08 З 3 50 км 8/4 600 м
[Cb calv Ac trans Ci sp]
+23.3 +9.6 42 +25 +26 комфорт 1022.2 1013.5
15 19.08 З 1 50 км 9/1 600 м
[Cb calv Ac trans Ci sp]
+20.0 +12.2 61 +23 +23 комфорт 1022.3 1013.5 +23.6
18 19.08 ЮЗ 1 50 км 9/8 1000 м
[Sc Ci sp]
+15.2 +12.3 83 +16 +16 1023.0 1014.1
21 19.08 ЮЗ 1 50 км 10/10 600 м
[Sc]
+14.3 +12.1 87 +15 +15 1023.2 1014.3
00 20.08 ЮЗ 2 50 км 9/9 600 м
[Cb calv]
+14.2 +11.9 86 +14 +14 1023.0 1014.1
03 20.08 ЮЗ 2 50 км 3/1 1000 м
[Sc Ci sp]
+16.1 +12.4 79 +16 +18 1023.1 1014.2 +13.1
06 20.08 З 3 50 км 3/1 600 м
[Cu med, cong Ci fib]
+21.9 +11.2 51 +24 +30 комфорт 1022.2 1013.5
09 20.08 З 3 50 км 9/9 600 м
[Cb calv]
+20.6 +11.7 57 +23 +24 комфорт 1021.7 1013.0
12 20.08 ЮЗ 3 50 км 8/6 600 м
[Cb calv Ac trans Ci sp]
+19.7 +12.3 62 +21 +22 комфорт 1020.7 1011.9
15 20.08 ЮЗ 2 50 км в посл. час ливневой дождь 9/8 600 м
[Cb calv Ac trans]
+17.0 +14.5 85 +17 +17 1020.3 1011.5 +22.7 1
18 20.08 ЮЗ 2 50 км {ливн. осадки} 6/3 600 м
[Sc Ac trans]
+15.4 +13.7 90 +15 +15 1020.5 1011.6
21 20.08 ЮЗ 2 30 км 3/3
[Sc]
+15.6 +14.2 91 +15 +15 1020.4 1011.5
00 21.08 ЮЗ 1 20 км 1/0
[Ci sp]
+13.8 +12.9 94 +14 +14 1021.2 1012.2
03 21.08 З 1 1000 м дымка 10/0
[As op]
+14.9 +14.2 96 +15 +16 1021.9 1013.0 +13.3
06 21.08 ЮЗ 1 5000 м в посл. час туман 8/6 300 м
[St Ac trans Ci sp]
+19.1 +16.2 83 +22 +25 комфорт 1022.3 1013.5
09 21.08 СЗ 2 50 км 8/8 600 м
[Cb calv]
+24.3 +13.5 51 +27 +28 жарко 1021.6 1013.0
12 21.08 З 2 50 км 8/5 600 м
[Cb calv Ci fib]
+25.3 +13.7 49 +28 +29 жарко 1021.2 1012.6
15 21.08 ЮЗ 1 50 км 8/0
[Cc]
+21.2 +15.8 71 +24 +24 комфорт 1021.4 1012.7 +25.4
18 21.08 Ю 1 30 км ясно +15.8 +13.9 88 +16 +16 1022.0 1013.1
21 21.08 ЮЗ 2 30 км ясно +15.5 +13.9 90 +15 +15 1022.6 1013.7
00 22.08 ЮЗ 1 20 км местами туман поземный 1/0
[Ci fib]
+14.8 +13.5 92 +15 +15 1023.3 1014.4
03 22.08 ЮЗ 2 20 км 8/0
[Cs]
+17.1 +14.9 87 +17 +19 1024.2 1015.3 +14.4
06 22.08 З 1 20 км ясно +23.5 +18.2 72 +28 +38 душно 1024.6 1016.0
09 22.08 СЗ 2 20 км 8/8 600 м
[Cb calv Ci sp]
+28.5 +18.6 55 +34 +35 очень
душно
1024.2 1015.7
12 22.08 С 1 20 км 5/3 600 м
[Cu med, cong Ac trans Ci sp]
+28.8 +15.8 45 +32 +34 душно 1024.1 1015.6
15 22.08 ЮВ 1 20 км 3/0
[Ci sp]
+24.1 +18.2 70 +29 +29 душно 1024.5 1015.9 +28.9
18 22.08 Ю 1 30 км 4/0
[Ci sp]
+18.5 +17.1 92 +20 +20 1025.5 1016.7
21 22.08 З 1 30 км местами туман поземный 3/0
[Ci sp]
+15.5 +14.7 95 +16 +16 1026.1 1017.2
00 23.08 штиль 0 1500 м дымка 3/0
[Ci sp]
+13.6 +13.0 96 +13 +13 1026.6 1017.6
03 23.08 штиль 0 8000 м дымка {туман} ясно +16.4 +15.8 96 +16 +19 1027.4 1018.5 +13.5
06 23.08 ЮЗ 1 50 км {туман} ясно +26.7 +18.3 60 +31 +41 душно 1027.0 1018.4
09 23.08 З 1 50 км 4/4 1000 м
[Cu med, cong]
+28.9 +15.4 44 +32 +38 душно 1026.5 1018.0
12 23.08 Ю 3 20 км 1/1 1000 м
[Cu hum]
+28.9 +14.9 43 +31 +34 жарко 1025.8 1017.3
15 23.08 Ю 2 20 км 1/1 1000 м
[Sc diur, vesp]
+23.6 +16.9 66 +27 +27 жарко 1025.4 1016.8 +29.5
18 23.08 З 1 30 км ясно +19.4 +16.0 81 +22 +22 комфорт 1025.8 1017.0
21 23.08 З 1 30 км ясно +17.0 +15.0 88 +18 +18 1026.0 1017.2
00 24.08 ЮЗ 1 20 км местами туман поземный ясно +15.4 +14.2 93 +16 +16 1026.6 1017.7
03 24.08 ЮЗ 1 5000 м дымка ясно +18.7 +16.0 84 +21 +23 комфорт 1026.6 1017.8 +14.6

 

Местоположение метеостанции Ирбит (Свердловская область, Россия): широта 57.62 долгота 62.97 высота над уровнем моря 74 м.

В архиве по умолчанию представлена погода в Ирбите за последнюю неделю. Архивные данные за месяц целиком и за предыдущие месяцы, начиная с января 2011 года, Вы можете получить, выбрав интересующий диапазон дат из раскрывающегося списка и нажав кнопку "Ввод!".

Внимание! Время в таблицах - всемирное. Для получения местного времени необходимо прибавить поправку, которая в Ирбите равна 5 ч.

Смотрите также архив погоды в соседних городах и на ближайших метеорологических станциях:

Погода в Туринске (Свердловская область, Россия) (64 км)
Погода в Артемовском (Свердловская область, Россия) (69 км)
Погода в Алапаевске (Свердловская область, Россия) (80 км)
Погода в Камышлове (Свердловская область, Россия) (87 км)
Погода в Тугулыме (Свердловская область, Россия) (119 км)
Погода в Таборах (Свердловская область, Россия) (135 км)
Погода в Тавде (Свердловская область, Россия) (145 км)
Погода в Каменск-Уральском (Свердловская область, Россия) (148 км)
Погода в Далматово (Курганская область, Россия) (150 км)
Погода в Верхнем Дуброво (Свердловская область, Россия) (151 км)

Пояснения к столбцам:

Ветер - указаны скорость ветра в м/с - средняя за 10 мин, порывы в срок и между сроками (в фигурных скобках) и направление, откуда дует ветер: С - северный, СВ - северо-восточный, В - восточный, ЮВ - юго-восточный, Ю - южный, ЮЗ - юго-западный, З - западный, СЗ - северо-западный.
Видимость - горизонтальная дальность видимости в метрах или километрах. При видимости от 1 до 10 км при отсутствии осадков обычно наблюдается дымка, при ухудшении видимости до 1 км и менее - туман. В сухую погоду видимость может ухудшаться дымом, пылью или мглою.
Явления - указаны атмосферные явления, наблюдавшиеся в срок или в последний час перед сроком; фигурными скобками обозначены явления, наблюдавшиеся между сроками (за 1-3 часа до срока); квадратными скобками обозначены град или гололедные отложения с указанием их диаметра в мм.
Облачность - указаны через наклонную черту общая и нижняя облачность в баллах и высота нижней границы облаков в метрах; квадратными скобками обозначены формы облаков: Ci - перистые, Cs - перисто-слоистые, Cc - перисто-кучевые, Ac - высококучевые, As - высокослоистые, Sc - слоисто-кучевые, Ns - слоисто-дождевые, Cu - кучевые, Cb - кучево-дождевые. Подробнее классификацию облаков см. в Атласе облаков (PDF).
T - Температура воздуха - температура, измеренная на высоте 2 м над землей.
Td - Температура точки росы - температура, при понижении до которой содержащийся в воздухе водяной пар достигнет насыщения.
f - Относительная влажность воздуха - влажноcть воздуха, измеренная на высоте 2 м над землей.
Te - Эффективная температура - температура, которую ощущает одетый по сезону человек в тени. Характеристика душности погоды. При расчете учитывается влияние влажности воздуха и скорости ветра на теплоощущения человека.
Tes - Эффективная температура на солнце - температура, которую ощущает человек, с поправкой на солнечный нагрев. Характеристика знойности погоды. Зависит от высоты солнца над горизонтом, облачности и скорости ветра. Ночью, в пасмурную погоду, а также при ветре 12 м/с и более поправка равна нулю.
P - Атмосферное давление - приведенное к уровню моря атмосферное давление.
Po - Атмосферное давление - измеренное на уровне метеостанции атмосферное давление.
Tmin - Минимальная температура - минимум температуры воздуха на высоте 2 м над землей.
Tmax - Максимальная температура - максимум температуры воздуха на высоте 2 м над землей.
R - Количество осадков - Количество выпавших осадков за период времени, мм. При наведении курсора мыши на число - период времени, за который выпало указанное количество осадков.
R24 - Количество осадков - Количество выпавших осадков за 24 часа, мм.
S - Снежный покров - Высота снежного покрова, см. При наведении курсора мыши на число - состояние снежного покрова и степень покрытия местности в баллах.